ANA109 KSFO-RJTT

Flight info

Callsign ANA109
Flight time N/A
Altitude 32000
Route GNNRR3 AMAKR DCT REDWD DCT UNVER DCT 42N130W 47N140W/N0488F340 50N150W 52N160W DCT RIZON DCT EYWAK/N0493F360 DCT CHIKI DCT WALLT DCT ASPIN DCT AKISU DCT AGEDI ADGOR/N0481F380 R591 ADNAP Y807 POLIX
Aircraft B77W/H-SDE1E2E3FGHIJ2J3J4J5M1RWXY/LB1D1

Departure

Time 2026-05-06 06:01
Airport San Francisco International Airport (KSFO)

Arrival

Time N/A
Airport Tokyo Haneda International Airport (RJTT)
Time Latitude Longitude Altitude Speed Heading
2026-05-06 05:19 37.61395 -122.38735 27 ft 0 kts 340°
2026-05-06 05:47 37.61390 -122.38732 26 ft 4 kts 341°
2026-05-06 05:48 37.61364 -122.38724 25 ft 4 kts 356°
2026-05-06 05:48 37.61343 -122.38724 26 ft 3 kts
2026-05-06 05:48 37.61317 -122.38726 26 ft 4 kts 352°
2026-05-06 05:48 37.61296 -122.38716 27 ft 4 kts 288°
2026-05-06 05:49 37.61291 -122.38719 26 ft 4 kts 242°
2026-05-06 05:49 37.61270 -122.38736 27 ft 4 kts 205°
2026-05-06 05:49 37.61246 -122.38750 27 ft 4 kts 206°
2026-05-06 05:49 37.61224 -122.38764 27 ft 4 kts 207°
2026-05-06 05:50 37.61200 -122.38780 27 ft 4 kts 207°
2026-05-06 05:50 37.61176 -122.38796 27 ft 4 kts 207°
2026-05-06 05:50 37.61152 -122.38812 26 ft 4 kts 207°
2026-05-06 05:50 37.61142 -122.38818 27 ft 0 kts 207°
2026-05-06 05:54 37.61093 -122.38851 27 ft 14 kts 207°
2026-05-06 05:54 37.61006 -122.38835 27 ft 14 kts 132°
2026-05-06 05:54 37.60954 -122.38730 27 ft 14 kts 117°
2026-05-06 05:54 37.60908 -122.38619 27 ft 14 kts 117°
2026-05-06 05:55 37.60878 -122.38501 27 ft 14 kts 94°
2026-05-06 05:55 37.60888 -122.38379 27 ft 15 kts 68°
2026-05-06 05:55 37.60879 -122.38254 27 ft 15 kts 95°
2026-05-06 05:55 37.60844 -122.38121 27 ft 17 kts 117°
2026-05-06 05:56 37.60789 -122.37988 27 ft 17 kts 117°
2026-05-06 05:56 37.60749 -122.37851 27 ft 17 kts 76°
2026-05-06 05:56 37.60850 -122.37766 27 ft 22 kts 27°
2026-05-06 05:56 37.61001 -122.37665 27 ft 25 kts 27°
2026-05-06 05:57 37.61155 -122.37565 27 ft 25 kts 27°
2026-05-06 05:57 37.61308 -122.37464 27 ft 25 kts 27°
2026-05-06 05:57 37.61440 -122.37377 27 ft 18 kts 27°
2026-05-06 05:57 37.61536 -122.37283 27 ft 18 kts 56°
2026-05-06 05:58 37.61554 -122.37133 27 ft 18 kts 106°
2026-05-06 05:58 37.61501 -122.36991 27 ft 18 kts 118°
2026-05-06 05:58 37.61425 -122.36867 27 ft 19 kts 133°
2026-05-06 05:58 37.61329 -122.36692 27 ft 26 kts 118°
2026-05-06 05:59 37.61245 -122.36493 27 ft 26 kts 118°
2026-05-06 05:59 37.61162 -122.36298 27 ft 26 kts 118°
2026-05-06 05:59 37.61090 -122.36125 27 ft 11 kts 117°
2026-05-06 05:59 37.61056 -122.36036 27 ft 11 kts 106°
2026-05-06 06:00 37.61069 -122.35942 27 ft 11 kts 56°
2026-05-06 06:00 37.61137 -122.35888 27 ft 12 kts 12°
2026-05-06 06:00 37.61208 -122.35935 27 ft 15 kts 307°
2026-05-06 06:00 37.61310 -122.36170 27 ft 59 kts 298°
2026-05-06 06:01 37.61616 -122.36899 27 ft 127 kts 298°
2026-05-06 06:01 37.62122 -122.38107 32 ft 181 kts 297°
2026-05-06 06:01 37.62713 -122.39581 384 ft 194 kts 295°
2026-05-06 06:01 37.63325 -122.41154 887 ft 205 kts 298°
2026-05-06 06:02 37.64032 -122.42723 1568 ft 207 kts 299°
2026-05-06 06:02 37.64777 -122.44354 1895 ft 225 kts 299°
2026-05-06 06:02 37.65574 -122.46112 2190 ft 240 kts 298°
2026-05-06 06:02 37.66420 -122.47989 2589 ft 250 kts 297°
2026-05-06 06:03 37.67267 -122.49886 3186 ft 256 kts 298°
2026-05-06 06:03 37.68248 -122.51796 3753 ft 262 kts 305°
2026-05-06 06:03 37.69346 -122.53651 4403 ft 265 kts 308°
2026-05-06 06:03 37.70466 -122.55508 5086 ft 266 kts 309°
2026-05-06 06:04 37.71594 -122.57383 5689 ft 270 kts 309°
2026-05-06 06:04 37.72730 -122.59286 6314 ft 272 kts 309°
2026-05-06 06:04 37.73873 -122.61212 6870 ft 276 kts 309°
2026-05-06 06:04 37.75030 -122.63168 7431 ft 279 kts 309°
2026-05-06 06:05 37.76194 -122.65144 7987 ft 282 kts 309°
2026-05-06 06:05 37.77376 -122.67153 8515 ft 287 kts 309°
2026-05-06 06:05 37.78574 -122.69192 9059 ft 291 kts 309°
2026-05-06 06:05 37.79784 -122.71253 9599 ft 294 kts 309°
2026-05-06 06:06 37.81010 -122.73344 10136 ft 298 kts 309°
2026-05-06 06:06 37.82289 -122.75475 10368 ft 309 kts 315°
2026-05-06 06:06 37.83965 -122.77231 10492 ft 321 kts 330°
2026-05-06 06:06 37.85880 -122.78765 10621 ft 340 kts 330°
2026-05-06 06:07 37.87939 -122.80406 10784 ft 360 kts 330°
2026-05-06 06:07 37.90096 -122.82142 11130 ft 372 kts 330°
2026-05-06 06:07 37.92296 -122.83932 11684 ft 380 kts 329°
2026-05-06 06:07 37.94528 -122.85765 12407 ft 383 kts 329°
2026-05-06 06:08 37.96767 -122.87616 13231 ft 385 kts 329°
2026-05-06 06:08 37.99021 -122.89486 14001 ft 389 kts 329°
2026-05-06 06:08 38.01293 -122.91375 14703 ft 392 kts 329°
2026-05-06 06:08 38.03580 -122.93281 15412 ft 395 kts 329°
2026-05-06 06:09 38.05882 -122.95202 16146 ft 397 kts 329°
2026-05-06 06:09 38.08203 -122.97138 16833 ft 401 kts 329°
2026-05-06 06:09 38.10547 -122.99097 17487 ft 405 kts 329°
2026-05-06 06:09 38.12906 -123.01069 18159 ft 408 kts 329°
2026-05-06 06:10 38.15285 -123.03060 18781 ft 411 kts 329°
2026-05-06 06:10 38.17683 -123.05068 19381 ft 413 kts 329°
2026-05-06 06:10 38.20066 -123.07065 19978 ft 416 kts 329°
2026-05-06 06:10 38.22486 -123.09095 20579 ft 418 kts 329°
2026-05-06 06:11 38.24928 -123.11145 21146 ft 421 kts 329°
2026-05-06 06:11 38.27382 -123.13206 21712 ft 424 kts 329°
2026-05-06 06:11 38.29858 -123.15288 22263 ft 427 kts 329°
2026-05-06 06:11 38.32345 -123.17380 22812 ft 430 kts 329°
2026-05-06 06:12 38.34847 -123.19487 23357 ft 433 kts 329°
2026-05-06 06:12 38.37374 -123.21617 23873 ft 436 kts 329°
2026-05-06 06:12 38.39913 -123.23759 24296 ft 439 kts 329°
2026-05-06 06:12 38.42469 -123.25917 24741 ft 442 kts 329°
2026-05-06 06:13 38.45037 -123.28087 25178 ft 444 kts 329°
2026-05-06 06:13 38.47625 -123.30276 25604 ft 447 kts 329°
2026-05-06 06:13 38.50227 -123.32479 26024 ft 450 kts 329°
2026-05-06 06:13 38.52839 -123.34693 26434 ft 452 kts 329°
2026-05-06 06:14 38.55477 -123.36929 26832 ft 455 kts 329°
2026-05-06 06:14 38.58092 -123.39149 27218 ft 458 kts 329°
2026-05-06 06:14 38.60755 -123.41412 27599 ft 461 kts 329°
2026-05-06 06:14 38.63434 -123.43689 27973 ft 463 kts 329°
2026-05-06 06:15 38.66132 -123.45986 28340 ft 466 kts 329°
2026-05-06 06:15 38.68841 -123.48295 28686 ft 468 kts 329°
2026-05-06 06:15 38.71559 -123.50612 29010 ft 471 kts 329°
2026-05-06 06:15 38.74295 -123.52947 29327 ft 473 kts 329°
2026-05-06 06:16 38.77041 -123.55294 29631 ft 475 kts 329°
2026-05-06 06:16 38.79811 -123.57662 29918 ft 478 kts 329°
2026-05-06 06:16 38.82542 -123.60000 30240 ft 478 kts 329°
2026-05-06 06:16 38.85307 -123.62370 30600 ft 477 kts 329°
2026-05-06 06:17 38.88057 -123.64730 30996 ft 474 kts 329°
2026-05-06 06:17 38.90799 -123.67084 31368 ft 473 kts 329°
2026-05-06 06:17 38.93529 -123.69430 31680 ft 472 kts 329°
2026-05-06 06:17 38.96257 -123.71775 31982 ft 472 kts 329°
2026-05-06 06:18 39.00445 -123.76284 32130 ft 482 kts 310°
2026-05-06 06:18 39.02141 -123.80049 32151 ft 486 kts 297°
2026-05-06 06:18 39.03979 -123.85329 32138 ft 488 kts 298°
2026-05-06 06:19 39.06410 -123.91934 32143 ft 487 kts 299°
2026-05-06 06:19 39.09355 -123.99722 32136 ft 486 kts 299°
2026-05-06 06:20 39.12329 -124.07567 32145 ft 486 kts 299°
2026-05-06 06:20 39.15281 -124.15396 32144 ft 486 kts 299°
2026-05-06 06:21 39.18224 -124.23238 32135 ft 486 kts 299°
2026-05-06 06:21 39.21160 -124.31086 32141 ft 485 kts 299°
2026-05-06 06:22 39.24071 -124.38887 32145 ft 485 kts 299°
2026-05-06 06:22 39.26997 -124.46746 32147 ft 485 kts 299°
2026-05-06 06:23 39.29918 -124.54613 32142 ft 485 kts 299°
2026-05-06 06:23 39.32818 -124.62447 32148 ft 485 kts 299°
2026-05-06 06:24 39.35727 -124.70321 32151 ft 485 kts 298°
2026-05-06 06:24 39.38629 -124.78201 32149 ft 485 kts 298°
2026-05-06 06:25 39.41525 -124.86086 32150 ft 485 kts 298°
2026-05-06 06:26 39.45862 -124.97932 32155 ft 485 kts 298°
2026-05-06 06:26 39.48728 -125.05787 32155 ft 485 kts 298°
2026-05-06 06:27 39.51611 -125.13706 32156 ft 485 kts 298°
2026-05-06 06:27 39.54485 -125.21626 32155 ft 485 kts 298°
2026-05-06 06:28 39.57356 -125.29557 32155 ft 486 kts 298°
2026-05-06 06:28 39.60223 -125.37500 32152 ft 486 kts 298°
2026-05-06 06:29 39.63063 -125.45390 32158 ft 486 kts 298°
2026-05-06 06:29 39.65914 -125.53331 32162 ft 486 kts 298°
2026-05-06 06:30 39.68767 -125.61296 32152 ft 486 kts 298°
2026-05-06 06:30 39.71614 -125.69272 32171 ft 486 kts 297°
2026-05-06 06:31 39.74453 -125.77243 32162 ft 486 kts 297°
2026-05-06 06:31 39.77274 -125.85187 32160 ft 487 kts 297°
2026-05-06 06:32 39.80104 -125.93179 32178 ft 487 kts 297°
2026-05-06 06:32 39.82932 -126.01186 32161 ft 487 kts 297°
2026-05-06 06:33 39.85756 -126.09205 32160 ft 487 kts 297°
2026-05-06 06:33 39.88573 -126.17226 32165 ft 487 kts 297°
2026-05-06 06:34 39.91381 -126.25243 32158 ft 487 kts 297°
2026-05-06 06:34 39.94185 -126.33273 32169 ft 486 kts 297°
2026-05-06 06:35 39.96985 -126.41314 32171 ft 487 kts 297°
2026-05-06 06:35 39.99913 -126.49256 32162 ft 485 kts 302°
2026-05-06 06:36 40.03724 -126.56385 32174 ft 481 kts 310°
2026-05-06 06:36 40.07914 -126.63223 32183 ft 481 kts 310°
2026-05-06 06:37 40.12071 -126.70086 32177 ft 482 kts 310°
2026-05-06 06:37 40.16204 -126.76987 32180 ft 482 kts 310°
2026-05-06 06:38 40.20308 -126.83869 32183 ft 482 kts 310°
2026-05-06 06:38 40.24434 -126.90796 32186 ft 482 kts 309°
2026-05-06 06:39 40.28556 -126.97731 32182 ft 482 kts 309°
2026-05-06 06:39 40.32678 -127.04672 32184 ft 482 kts 309°
2026-05-06 06:40 40.36801 -127.11616 32187 ft 482 kts 309°
2026-05-06 06:40 40.40916 -127.18561 32187 ft 482 kts 309°
2026-05-06 06:41 40.45028 -127.25520 32190 ft 482 kts 309°
2026-05-06 06:41 40.49127 -127.32472 32187 ft 482 kts 309°
2026-05-06 06:42 40.53225 -127.39441 32188 ft 482 kts 309°
2026-05-06 06:42 40.57294 -127.46375 32187 ft 482 kts 309°
2026-05-06 06:43 40.61392 -127.53373 32190 ft 481 kts 309°
2026-05-06 06:43 40.65478 -127.60366 32193 ft 481 kts 309°
2026-05-06 06:44 40.69562 -127.67374 32195 ft 481 kts 309°
2026-05-06 06:44 40.73613 -127.74339 32193 ft 481 kts 308°
2026-05-06 06:45 40.77685 -127.81357 32197 ft 481 kts 308°
2026-05-06 06:45 40.81745 -127.88370 32195 ft 481 kts 308°
2026-05-06 06:46 40.85805 -127.95397 32197 ft 480 kts 308°
2026-05-06 06:46 40.89848 -128.02413 32201 ft 479 kts 308°
2026-05-06 06:47 40.93888 -128.09440 32200 ft 479 kts 308°
2026-05-06 06:47 40.97919 -128.16465 32203 ft 479 kts 308°
2026-05-06 06:48 41.01914 -128.23445 32208 ft 478 kts 308°
2026-05-06 06:48 41.05930 -128.30477 32202 ft 479 kts 308°
2026-05-06 06:49 41.09948 -128.37528 32207 ft 478 kts 307°
2026-05-06 06:49 41.13957 -128.44580 32214 ft 478 kts 307°
2026-05-06 06:50 41.17962 -128.51641 32203 ft 479 kts 307°
2026-05-06 06:50 41.21968 -128.58719 32213 ft 479 kts 307°
2026-05-06 06:51 41.25969 -128.65806 32212 ft 479 kts 306°
2026-05-06 06:51 41.29961 -128.72895 32204 ft 479 kts 306°
2026-05-06 06:52 41.33923 -128.79945 32222 ft 478 kts 306°
2026-05-06 06:52 41.37913 -128.87060 32213 ft 479 kts 306°
2026-05-06 06:53 41.41895 -128.94179 32214 ft 479 kts 306°
2026-05-06 06:53 41.45867 -129.01298 32226 ft 478 kts 305°
2026-05-06 06:54 41.49836 -129.08425 32212 ft 479 kts 305°
2026-05-06 06:54 41.53803 -129.15567 32222 ft 478 kts 305°
2026-05-06 06:55 41.57741 -129.22674 32227 ft 479 kts 305°
2026-05-06 06:55 41.61697 -129.29829 32220 ft 479 kts 306°
2026-05-06 06:56 41.65657 -129.37009 32230 ft 479 kts 305°
2026-05-06 06:56 41.69612 -129.44195 32226 ft 479 kts 305°
2026-05-06 06:57 41.73554 -129.51377 32224 ft 479 kts 305°
2026-05-06 06:57 41.77500 -129.58581 32231 ft 479 kts 305°
2026-05-06 06:58 41.81444 -129.65799 32227 ft 480 kts 304°
2026-05-06 06:58 41.85361 -129.72985 32235 ft 480 kts 304°
2026-05-06 06:59 41.89306 -129.80241 32236 ft 480 kts 304°
2026-05-06 06:59 41.93242 -129.87498 32229 ft 481 kts 304°
2026-05-06 07:00 41.97176 -129.94767 32240 ft 481 kts 304°
2026-05-06 07:00 42.01118 -130.02035 32241 ft 481 kts 305°
2026-05-06 07:01 42.05228 -130.09078 32241 ft 482 kts 307°
2026-05-06 07:01 42.09439 -130.16108 32246 ft 482 kts 307°
2026-05-06 07:02 42.13626 -130.23167 32241 ft 482 kts 306°
2026-05-06 07:02 42.17781 -130.30248 32243 ft 481 kts 306°
2026-05-06 07:03 42.21906 -130.37318 32253 ft 481 kts 306°
2026-05-06 07:03 42.26042 -130.44424 32247 ft 481 kts 306°
2026-05-06 07:04 42.30169 -130.51528 32245 ft 481 kts 306°
2026-05-06 07:04 42.33596 -130.57439 32256 ft 480 kts 306°
2026-05-06 07:05 42.38389 -130.65726 32258 ft 480 kts 306°
2026-05-06 07:05 42.41829 -130.71687 32251 ft 479 kts 306°
2026-05-06 07:06 42.45907 -130.78770 32256 ft 479 kts 306°
2026-05-06 07:06 42.49998 -130.85892 32267 ft 478 kts 306°
2026-05-06 07:07 42.54083 -130.93020 32260 ft 477 kts 306°
2026-05-06 07:07 42.58146 -131.00127 32265 ft 476 kts 306°
2026-05-06 07:08 42.62205 -131.07245 32275 ft 476 kts 306°
2026-05-06 07:08 42.66252 -131.14356 32266 ft 475 kts 306°
2026-05-06 07:09 42.70264 -131.21426 32269 ft 475 kts 306°
2026-05-06 07:09 42.74300 -131.28554 32287 ft 474 kts 306°
2026-05-06 07:10 42.78322 -131.35673 32280 ft 475 kts 306°
2026-05-06 07:10 42.82343 -131.42808 32273 ft 475 kts 306°
2026-05-06 07:11 42.86358 -131.49949 32285 ft 474 kts 306°
2026-05-06 07:11 42.90372 -131.57108 32287 ft 475 kts 306°
2026-05-06 07:12 42.94355 -131.64227 32286 ft 475 kts 306°
2026-05-06 07:12 42.98365 -131.71412 32287 ft 475 kts 306°
2026-05-06 07:13 43.02373 -131.78609 32287 ft 475 kts 305°
2026-05-06 07:13 43.06349 -131.85769 32290 ft 475 kts 306°
2026-05-06 07:14 43.10348 -131.92986 32292 ft 475 kts 305°
2026-05-06 07:14 43.14345 -132.00216 32304 ft 475 kts 305°
2026-05-06 07:15 43.18332 -132.07447 32286 ft 475 kts 305°
2026-05-06 07:15 43.22313 -132.14684 32302 ft 475 kts 305°
2026-05-06 07:16 43.26288 -132.21930 32307 ft 475 kts 305°
2026-05-06 07:16 43.30259 -132.29184 32293 ft 474 kts 305°
2026-05-06 07:17 43.34187 -132.36378 32316 ft 473 kts 305°
2026-05-06 07:17 43.38131 -132.43619 32317 ft 473 kts 305°
2026-05-06 07:18 43.42064 -132.50859 32320 ft 472 kts 306°
2026-05-06 07:18 43.45990 -132.58102 32308 ft 471 kts 306°
2026-05-06 07:19 43.49900 -132.65332 32332 ft 470 kts 306°
2026-05-06 07:19 43.53797 -132.72558 32323 ft 469 kts 306°
2026-05-06 07:20 43.57667 -132.79752 32319 ft 469 kts 306°
2026-05-06 07:20 43.61545 -132.86977 32323 ft 468 kts 306°
2026-05-06 07:21 43.65421 -132.94216 32325 ft 468 kts 306°
2026-05-06 07:21 43.69294 -133.01468 32332 ft 468 kts 306°
2026-05-06 07:22 43.73135 -133.08680 32324 ft 468 kts 306°
2026-05-06 07:22 43.76999 -133.15951 32330 ft 468 kts 306°
2026-05-06 07:23 43.80849 -133.23212 32340 ft 468 kts 305°
2026-05-06 07:23 43.84692 -133.30480 32334 ft 467 kts 305°
2026-05-06 07:24 43.88526 -133.37750 32340 ft 467 kts 305°
2026-05-06 07:24 43.92333 -133.44985 32339 ft 467 kts 305°
2026-05-06 07:25 43.96154 -133.52265 32345 ft 466 kts 304°
2026-05-06 07:25 43.99975 -133.59562 32341 ft 466 kts 304°
2026-05-06 07:26 44.03780 -133.66849 32347 ft 466 kts 304°
2026-05-06 07:26 44.07584 -133.74151 32353 ft 465 kts 303°
2026-05-06 07:27 44.11375 -133.81445 32345 ft 465 kts 303°
2026-05-06 07:27 44.15161 -133.88750 32353 ft 465 kts 303°
2026-05-06 07:28 44.18942 -133.96063 32354 ft 465 kts 303°
2026-05-06 07:28 44.24581 -134.07005 32358 ft 465 kts 303°
2026-05-06 07:29 44.28350 -134.14341 32358 ft 465 kts 303°
2026-05-06 07:29 44.32120 -134.21698 32359 ft 465 kts 303°
2026-05-06 07:30 44.35884 -134.29059 32362 ft 466 kts 303°
2026-05-06 07:30 44.39643 -134.36433 32363 ft 466 kts 303°
2026-05-06 07:31 44.43397 -134.43816 32361 ft 466 kts 303°
2026-05-06 07:31 44.47150 -134.51213 32372 ft 466 kts 302°
2026-05-06 07:32 44.50897 -134.58617 32369 ft 466 kts 302°
2026-05-06 07:32 44.54617 -134.65990 32369 ft 466 kts 302°
2026-05-06 07:33 44.58357 -134.73418 32368 ft 466 kts 302°
2026-05-06 07:33 44.62091 -134.80855 32381 ft 466 kts 302°
2026-05-06 07:34 44.65819 -134.88299 32373 ft 466 kts 302°
2026-05-06 07:34 44.69541 -134.95750 32381 ft 466 kts 302°
2026-05-06 07:35 44.71410 -134.99499 32556 ft 468 kts 302°
2026-05-06 07:35 44.73249 -135.03194 32929 ft 465 kts 302°
2026-05-06 07:35 44.75100 -135.06912 33393 ft 461 kts 302°
2026-05-06 07:35 44.76932 -135.10599 33843 ft 458 kts 302°
2026-05-06 07:36 44.78747 -135.14256 34248 ft 455 kts 302°
2026-05-06 07:36 44.80562 -135.17921 34330 ft 457 kts 302°
2026-05-06 07:36 44.84200 -135.25283 34370 ft 456 kts 302°
2026-05-06 07:37 44.87805 -135.32591 34392 ft 453 kts 301°
2026-05-06 07:37 44.91392 -135.39883 34381 ft 452 kts 301°
2026-05-06 07:38 44.94968 -135.47173 34390 ft 452 kts 301°
2026-05-06 07:38 44.98522 -135.54437 34392 ft 452 kts 301°
2026-05-06 07:39 45.02103 -135.61772 34402 ft 454 kts 301°
2026-05-06 07:39 45.05699 -135.69158 34394 ft 455 kts 301°
2026-05-06 07:40 45.09290 -135.76553 34392 ft 456 kts 301°
2026-05-06 07:40 45.12882 -135.83968 34392 ft 457 kts 301°
2026-05-06 07:41 45.16460 -135.91372 34396 ft 457 kts 300°
2026-05-06 07:41 45.20052 -135.98827 34392 ft 457 kts 300°
2026-05-06 07:42 45.23636 -136.06283 34397 ft 457 kts 300°
2026-05-06 07:42 45.27210 -136.13737 34412 ft 456 kts 300°
2026-05-06 07:43 45.30778 -136.21200 34399 ft 456 kts 300°
2026-05-06 07:43 45.34310 -136.28606 34405 ft 455 kts 300°
2026-05-06 07:44 45.37860 -136.36071 34393 ft 455 kts 300°
2026-05-06 07:44 45.41402 -136.43538 34409 ft 454 kts 300°
2026-05-06 07:45 45.44934 -136.51003 34405 ft 454 kts 300°
2026-05-06 07:45 45.48464 -136.58483 34405 ft 454 kts 299°
2026-05-06 07:46 45.51969 -136.65930 34401 ft 455 kts 299°
2026-05-06 07:46 45.55487 -136.73426 34408 ft 455 kts 299°
2026-05-06 07:47 45.59010 -136.80950 34400 ft 455 kts 299°
2026-05-06 07:47 45.62529 -136.88488 34404 ft 455 kts 299°
2026-05-06 07:48 45.66022 -136.95988 34393 ft 456 kts 299°
2026-05-06 07:48 45.69536 -137.03551 34397 ft 456 kts 298°
2026-05-06 07:49 45.72453 -137.09848 34401 ft 456 kts 298°
2026-05-06 07:49 45.75944 -137.17402 34402 ft 455 kts 298°
2026-05-06 07:50 45.79440 -137.24985 34405 ft 455 kts 298°
2026-05-06 07:50 45.82924 -137.32563 34411 ft 455 kts 298°
2026-05-06 07:51 45.86402 -137.40152 34405 ft 454 kts 298°
2026-05-06 07:51 45.89847 -137.47684 34410 ft 453 kts 298°
2026-05-06 07:52 45.93304 -137.55265 34428 ft 453 kts 298°
2026-05-06 07:52 45.96755 -137.62854 34415 ft 453 kts 298°
2026-05-06 07:53 46.00200 -137.70450 34408 ft 453 kts 298°
2026-05-06 07:53 46.03637 -137.78048 34410 ft 453 kts 298°
2026-05-06 07:54 46.07042 -137.85596 34431 ft 453 kts 298°
2026-05-06 07:54 46.10474 -137.93225 34412 ft 453 kts 297°
2026-05-06 07:55 46.13902 -138.00867 34413 ft 453 kts 297°
2026-05-06 07:55 46.17325 -138.08515 34412 ft 453 kts 297°
2026-05-06 07:56 46.20717 -138.16117 34435 ft 453 kts 297°
2026-05-06 07:56 46.24124 -138.23772 34413 ft 452 kts 297°
2026-05-06 07:57 46.27520 -138.31424 34407 ft 451 kts 297°
2026-05-06 07:57 46.30904 -138.39071 34409 ft 450 kts 297°
2026-05-06 07:58 46.34277 -138.46711 34426 ft 450 kts 297°
2026-05-06 07:58 46.37621 -138.54310 34408 ft 449 kts 297°
2026-05-06 07:59 46.40968 -138.61935 34408 ft 448 kts 297°
2026-05-06 07:59 46.44304 -138.69557 34415 ft 447 kts 297°
2026-05-06 08:00 46.47635 -138.77187 34426 ft 447 kts 296°
2026-05-06 08:00 46.50960 -138.84825 34416 ft 447 kts 296°
2026-05-06 08:01 46.54280 -138.92472 34409 ft 447 kts 296°
2026-05-06 08:01 46.57566 -139.00062 34407 ft 447 kts 296°
2026-05-06 08:02 46.60872 -139.07719 34420 ft 447 kts 296°
2026-05-06 08:02 46.64177 -139.15395 34402 ft 447 kts 296°
2026-05-06 08:03 46.67480 -139.23089 34404 ft 447 kts 296°
2026-05-06 08:03 46.70776 -139.30785 34400 ft 447 kts 296°
2026-05-06 08:04 46.74068 -139.38495 34408 ft 448 kts 295°
2026-05-06 08:04 46.77347 -139.46196 34406 ft 448 kts 295°
2026-05-06 08:05 46.80629 -139.53926 34405 ft 448 kts 295°
2026-05-06 08:05 46.83906 -139.61665 34401 ft 448 kts 295°
2026-05-06 08:06 46.87180 -139.69419 34405 ft 448 kts 295°
2026-05-06 08:06 46.90431 -139.77141 34398 ft 448 kts 295°
2026-05-06 08:07 46.93703 -139.84934 34405 ft 448 kts 295°
2026-05-06 08:07 46.96964 -139.92724 34402 ft 448 kts 295°
2026-05-06 08:08 47.00186 -140.00482 34415 ft 447 kts 293°
2026-05-06 08:08 47.03134 -140.08486 34405 ft 445 kts 291°
2026-05-06 08:09 47.06015 -140.16526 34399 ft 445 kts 291°
2026-05-06 08:09 47.08895 -140.24565 34403 ft 445 kts 291°
2026-05-06 08:10 47.11778 -140.32601 34422 ft 445 kts 291°
2026-05-06 08:10 47.14659 -140.40641 34408 ft 445 kts 291°
2026-05-06 08:11 47.17536 -140.48690 34401 ft 445 kts 291°
2026-05-06 08:11 47.20390 -140.56701 34398 ft 445 kts 291°
2026-05-06 08:12 47.23256 -140.64770 34420 ft 445 kts 291°
2026-05-06 08:12 47.26118 -140.72852 34406 ft 445 kts 291°
2026-05-06 08:13 47.28977 -140.80951 34391 ft 446 kts 291°
2026-05-06 08:13 47.31829 -140.89056 34393 ft 445 kts 290°
2026-05-06 08:14 47.34677 -140.97173 34399 ft 445 kts 290°
2026-05-06 08:14 47.37502 -141.05249 34399 ft 446 kts 290°
2026-05-06 08:15 47.40342 -141.13395 34398 ft 446 kts 290°
2026-05-06 08:15 47.43171 -141.21535 34397 ft 446 kts 290°
2026-05-06 08:16 47.45996 -141.29687 34397 ft 446 kts 290°
2026-05-06 08:16 47.48817 -141.37852 34407 ft 446 kts 290°
2026-05-06 08:17 47.51630 -141.46022 34390 ft 446 kts 290°
2026-05-06 08:17 47.54437 -141.54198 34398 ft 446 kts 290°
2026-05-06 08:18 47.57242 -141.62396 34396 ft 445 kts 290°
2026-05-06 08:18 47.60038 -141.70591 34401 ft 446 kts 289°
2026-05-06 08:19 47.62828 -141.78799 34389 ft 446 kts 289°
2026-05-06 08:19 47.65600 -141.86977 34389 ft 446 kts 289°
2026-05-06 08:20 47.68389 -141.95229 34389 ft 446 kts 289°
2026-05-06 08:20 47.71168 -142.03479 34409 ft 447 kts 289°
2026-05-06 08:21 47.73946 -142.11755 34392 ft 447 kts 289°
2026-05-06 08:21 47.76717 -142.20037 34385 ft 448 kts 289°
2026-05-06 08:22 47.79472 -142.28294 34383 ft 448 kts 289°
2026-05-06 08:22 47.82235 -142.36602 34417 ft 448 kts 289°
2026-05-06 08:23 47.84995 -142.44929 34387 ft 448 kts 289°
2026-05-06 08:23 47.87747 -142.53260 34380 ft 448 kts 289°
2026-05-06 08:24 47.90495 -142.61604 34380 ft 448 kts 289°
2026-05-06 08:24 47.93216 -142.69895 34380 ft 448 kts 288°
2026-05-06 08:25 47.95949 -142.78248 34382 ft 448 kts 288°
2026-05-06 08:25 47.98680 -142.86624 34366 ft 448 kts 288°
2026-05-06 08:26 48.01402 -142.95000 34378 ft 448 kts 288°
2026-05-06 08:26 48.04120 -143.03389 34379 ft 448 kts 288°
2026-05-06 08:27 48.06827 -143.11775 34378 ft 448 kts 288°
2026-05-06 08:27 48.09516 -143.20129 34365 ft 448 kts 288°
2026-05-06 08:28 48.12213 -143.28539 34376 ft 448 kts 288°
2026-05-06 08:28 48.14905 -143.36960 34374 ft 448 kts 288°
2026-05-06 08:29 48.17572 -143.45330 34386 ft 448 kts 288°
2026-05-06 08:29 48.20254 -143.53776 34371 ft 448 kts 288°
2026-05-06 08:30 48.22931 -143.62235 34369 ft 448 kts 288°
2026-05-06 08:30 48.25600 -143.70695 34381 ft 448 kts 287°
2026-05-06 08:31 48.28245 -143.79109 34402 ft 448 kts 287°
2026-05-06 08:31 48.30904 -143.87595 34376 ft 449 kts 287°
2026-05-06 08:32 48.33560 -143.96103 34365 ft 449 kts 287°
2026-05-06 08:32 48.36206 -144.04603 34364 ft 448 kts 287°
2026-05-06 08:33 48.38844 -144.13110 34363 ft 448 kts 287°
2026-05-06 08:33 48.41460 -144.21573 34369 ft 448 kts 287°
2026-05-06 08:34 48.45392 -144.34350 34354 ft 448 kts 287°
2026-05-06 08:35 48.48005 -144.42879 34359 ft 449 kts 287°
2026-05-06 08:35 48.50621 -144.51446 34365 ft 450 kts 287°
2026-05-06 08:36 48.53233 -144.60032 34356 ft 451 kts 286°
2026-05-06 08:36 48.55407 -144.67196 34351 ft 451 kts 286°
2026-05-06 08:37 48.58438 -144.77223 34353 ft 451 kts 286°
2026-05-06 08:37 48.61036 -144.85847 34357 ft 451 kts 286°
2026-05-06 08:38 48.63208 -144.93080 34367 ft 451 kts 286°
2026-05-06 08:38 48.65776 -145.01663 34362 ft 451 kts 286°
2026-05-06 08:39 48.68355 -145.10312 34347 ft 450 kts 286°
2026-05-06 08:39 48.70921 -145.18948 34353 ft 450 kts 286°
2026-05-06 08:40 48.73483 -145.27602 34382 ft 450 kts 285°
2026-05-06 08:40 48.76039 -145.36268 34356 ft 450 kts 285°
2026-05-06 08:41 48.78591 -145.44951 34350 ft 451 kts 285°
2026-05-06 08:41 48.81124 -145.53599 34349 ft 451 kts 285°
2026-05-06 08:42 48.83667 -145.62309 34345 ft 451 kts 285°
2026-05-06 08:42 48.86205 -145.71039 34350 ft 452 kts 285°
2026-05-06 08:43 48.88744 -145.79800 34349 ft 453 kts 285°
2026-05-06 08:43 48.91279 -145.88580 34345 ft 453 kts 285°
2026-05-06 08:44 48.93806 -145.97362 34344 ft 453 kts 285°
2026-05-06 08:44 48.96329 -146.06167 34354 ft 454 kts 285°
2026-05-06 08:45 48.98853 -146.15005 34350 ft 455 kts 285°
2026-05-06 08:45 49.01352 -146.23789 34345 ft 455 kts 285°
2026-05-06 08:46 49.03867 -146.32658 34342 ft 455 kts 285°
2026-05-06 08:46 49.06373 -146.41533 34373 ft 455 kts 285°
2026-05-06 08:47 49.08861 -146.50379 34338 ft 457 kts 285°
2026-05-06 08:47 49.11361 -146.59296 34332 ft 458 kts 285°
2026-05-06 08:48 49.13863 -146.68255 34332 ft 458 kts 285°
2026-05-06 08:48 49.16360 -146.77229 34331 ft 458 kts 285°
2026-05-06 08:49 49.18848 -146.86203 34329 ft 458 kts 285°
2026-05-06 08:49 49.21328 -146.95187 34328 ft 458 kts 285°
2026-05-06 08:50 49.23785 -147.04116 34328 ft 458 kts 284°
2026-05-06 08:50 49.26249 -147.13109 34328 ft 458 kts 284°
2026-05-06 08:51 49.28704 -147.22106 34328 ft 459 kts 284°
2026-05-06 08:51 49.31160 -147.31139 34329 ft 459 kts 284°
2026-05-06 08:52 49.33612 -147.40194 34323 ft 460 kts 284°
2026-05-06 08:52 49.36062 -147.49273 34319 ft 461 kts 284°
2026-05-06 08:53 49.38508 -147.58373 34342 ft 461 kts 284°
2026-05-06 08:53 49.40937 -147.67449 34321 ft 463 kts 284°
2026-05-06 08:54 49.43380 -147.76610 34317 ft 464 kts 284°
2026-05-06 08:54 49.45821 -147.85802 34310 ft 464 kts 284°
2026-05-06 08:55 49.48256 -147.95002 34310 ft 465 kts 284°
2026-05-06 08:55 49.50686 -148.04229 34315 ft 466 kts 284°
2026-05-06 08:56 49.53104 -148.13442 34311 ft 467 kts 284°
2026-05-06 08:56 49.55533 -148.22735 34304 ft 468 kts 284°
2026-05-06 08:57 49.57955 -148.32037 34305 ft 468 kts 284°
2026-05-06 08:57 49.60375 -148.41373 34303 ft 469 kts 284°
2026-05-06 08:58 49.62787 -148.50714 34300 ft 469 kts 284°
2026-05-06 08:58 49.65195 -148.60077 34296 ft 469 kts 284°
2026-05-06 08:59 49.67596 -148.69454 34296 ft 469 kts 284°
2026-05-06 08:59 49.69987 -148.78830 34318 ft 470 kts 284°
2026-05-06 09:00 49.72378 -148.88243 34299 ft 470 kts 284°
2026-05-06 09:00 49.74758 -148.97652 34293 ft 470 kts 284°
2026-05-06 09:01 49.77111 -149.06997 34295 ft 469 kts 284°
2026-05-06 09:01 49.79471 -149.16407 34312 ft 469 kts 284°
2026-05-06 09:02 49.81825 -149.25836 34285 ft 469 kts 284°
2026-05-06 09:02 49.84167 -149.35252 34281 ft 468 kts 283°
2026-05-06 09:03 49.86499 -149.44668 34280 ft 467 kts 283°
2026-05-06 09:03 49.88821 -149.54084 34280 ft 467 kts 283°
2026-05-06 09:04 49.91134 -149.63507 34279 ft 467 kts 284°
2026-05-06 09:04 49.93428 -149.72889 34274 ft 467 kts 284°
2026-05-06 09:05 49.95722 -149.82314 34275 ft 467 kts 283°
2026-05-06 09:05 49.98010 -149.91752 34272 ft 466 kts 283°
2026-05-06 09:06 50.00294 -150.01203 34285 ft 467 kts 284°
2026-05-06 09:06 50.02649 -150.10633 34271 ft 467 kts 284°
2026-05-06 09:07 50.05034 -150.20048 34267 ft 467 kts 284°
2026-05-06 09:07 50.07387 -150.29400 34266 ft 467 kts 284°
2026-05-06 09:08 50.09739 -150.38825 34301 ft 467 kts 284°
2026-05-06 09:08 50.12087 -150.48295 34273 ft 467 kts 284°
2026-05-06 09:09 50.14411 -150.57706 34261 ft 467 kts 284°
2026-05-06 09:09 50.16736 -150.67164 34261 ft 467 kts 284°
2026-05-06 09:10 50.19060 -150.76653 34261 ft 467 kts 284°
2026-05-06 09:10 50.21373 -150.86140 34263 ft 468 kts 284°
2026-05-06 09:11 50.23681 -150.95647 34258 ft 468 kts 284°
2026-05-06 09:11 50.25980 -151.05158 34260 ft 468 kts 284°
2026-05-06 09:12 50.28273 -151.14684 34258 ft 468 kts 284°
2026-05-06 09:12 50.30559 -151.24224 34266 ft 468 kts 284°
2026-05-06 09:13 50.32821 -151.33707 34256 ft 468 kts 284°
2026-05-06 09:13 50.35088 -151.43247 34252 ft 467 kts 284°
2026-05-06 09:14 50.37348 -151.52805 34252 ft 467 kts 283°
2026-05-06 09:14 50.39593 -151.62339 34275 ft 466 kts 283°
2026-05-06 09:15 50.41831 -151.71888 34249 ft 467 kts 283°
2026-05-06 09:15 50.44064 -151.81456 34247 ft 466 kts 283°
2026-05-06 09:16 50.46285 -151.91015 34246 ft 466 kts 283°
2026-05-06 09:16 50.48499 -152.00590 34242 ft 466 kts 283°
2026-05-06 09:17 50.50706 -152.10172 34253 ft 466 kts 283°
2026-05-06 09:17 50.52906 -152.19770 34248 ft 466 kts 283°
2026-05-06 09:18 50.55079 -152.29295 34242 ft 466 kts 283°
2026-05-06 09:18 50.57261 -152.38898 34236 ft 465 kts 283°
2026-05-06 09:19 50.59429 -152.48485 34244 ft 465 kts 283°
2026-05-06 09:19 50.61588 -152.58076 34234 ft 464 kts 283°
2026-05-06 09:20 50.63737 -152.67666 34233 ft 464 kts 283°
2026-05-06 09:20 50.65877 -152.77260 34234 ft 463 kts 283°
2026-05-06 09:21 50.68005 -152.86845 34232 ft 463 kts 283°
2026-05-06 09:21 50.70128 -152.96452 34236 ft 463 kts 283°
2026-05-06 09:22 50.72226 -153.05988 34227 ft 463 kts 283°
2026-05-06 09:22 50.74326 -153.15576 34228 ft 462 kts 283°
2026-05-06 09:23 50.76417 -153.25169 34223 ft 462 kts 283°
2026-05-06 09:23 50.78162 -153.33213 34247 ft 461 kts 283°
2026-05-06 09:24 50.80222 -153.42746 34227 ft 461 kts 283°
2026-05-06 09:24 50.82285 -153.52338 34221 ft 461 kts 283°
2026-05-06 09:25 50.84341 -153.61939 34223 ft 460 kts 283°
2026-05-06 09:25 50.86386 -153.71539 34223 ft 460 kts 283°
2026-05-06 09:26 50.88423 -153.81150 34226 ft 460 kts 283°
2026-05-06 09:26 50.90454 -153.90767 34219 ft 460 kts 283°
2026-05-06 09:27 50.92475 -154.00388 34221 ft 460 kts 283°
2026-05-06 09:27 50.94473 -154.09946 34218 ft 459 kts 283°
2026-05-06 09:28 50.96477 -154.19579 34237 ft 459 kts 284°
2026-05-06 09:28 50.98474 -154.29223 34218 ft 459 kts 284°
2026-05-06 09:29 51.00464 -154.38881 34214 ft 459 kts 283°
2026-05-06 09:29 51.02427 -154.48455 34212 ft 459 kts 283°
2026-05-06 09:30 51.04396 -154.58101 34212 ft 459 kts 283°
2026-05-06 09:30 51.06358 -154.67766 34211 ft 459 kts 284°
2026-05-06 09:31 51.08311 -154.77428 34213 ft 459 kts 284°
2026-05-06 09:31 51.10257 -154.87106 34211 ft 459 kts 284°
2026-05-06 09:32 51.12185 -154.96740 34209 ft 459 kts 283°
2026-05-06 09:32 51.14113 -155.06427 34211 ft 459 kts 283°
2026-05-06 09:33 51.16041 -155.16158 34210 ft 459 kts 283°
2026-05-06 09:33 51.17954 -155.25863 34210 ft 459 kts 283°
2026-05-06 09:34 51.19853 -155.35546 34208 ft 459 kts 283°
2026-05-06 09:34 51.21751 -155.45272 34208 ft 459 kts 283°
2026-05-06 09:35 51.23644 -155.55027 34216 ft 460 kts 283°
2026-05-06 09:35 51.25532 -155.64801 34211 ft 461 kts 283°
2026-05-06 09:36 51.27411 -155.74580 34212 ft 461 kts 283°
2026-05-06 09:36 51.29288 -155.84395 34211 ft 461 kts 283°
2026-05-06 09:37 51.31145 -155.94159 34226 ft 461 kts 283°
2026-05-06 09:37 51.33005 -156.03991 34210 ft 462 kts 283°
2026-05-06 09:38 51.34858 -156.13840 34210 ft 463 kts 283°
2026-05-06 09:38 51.36706 -156.23708 34206 ft 463 kts 283°
2026-05-06 09:39 51.38546 -156.33589 34203 ft 463 kts 283°
2026-05-06 09:39 51.40378 -156.43481 34198 ft 463 kts 283°
2026-05-06 09:40 51.42193 -156.53333 34209 ft 464 kts 283°
2026-05-06 09:40 51.44917 -156.68218 34203 ft 464 kts 283°
2026-05-06 09:41 51.46726 -156.78168 34218 ft 464 kts 283°
2026-05-06 09:41 51.48526 -156.88130 34207 ft 465 kts 284°
2026-05-06 09:42 51.50320 -156.98107 34203 ft 465 kts 284°
2026-05-06 09:42 51.52094 -157.08028 34207 ft 465 kts 283°
2026-05-06 09:43 51.53872 -157.18022 34207 ft 465 kts 283°
2026-05-06 09:43 51.55640 -157.28023 34214 ft 465 kts 283°
2026-05-06 09:44 51.57403 -157.38052 34203 ft 465 kts 284°
2026-05-06 09:44 51.59145 -157.48014 34206 ft 465 kts 284°
2026-05-06 09:45 51.60890 -157.58050 34207 ft 466 kts 283°
2026-05-06 09:45 51.62628 -157.68103 34200 ft 466 kts 283°
2026-05-06 09:46 51.64358 -157.78165 34206 ft 466 kts 284°
2026-05-06 09:46 51.66068 -157.88171 34200 ft 467 kts 284°
2026-05-06 09:47 51.67783 -157.98262 34199 ft 467 kts 283°
2026-05-06 09:47 51.69489 -158.08360 34199 ft 467 kts 283°
2026-05-06 09:48 51.71187 -158.18471 34198 ft 467 kts 283°
2026-05-06 09:48 51.72879 -158.28605 34194 ft 468 kts 283°
2026-05-06 09:49 51.74555 -158.38698 34200 ft 468 kts 283°
2026-05-06 09:49 51.76232 -158.48859 34205 ft 469 kts 283°
2026-05-06 09:50 51.77902 -158.59044 34193 ft 469 kts 283°
2026-05-06 09:50 51.79563 -158.69231 34201 ft 470 kts 283°
2026-05-06 09:51 51.81222 -158.79468 34195 ft 471 kts 283°
2026-05-06 09:51 51.82873 -158.89717 34194 ft 471 kts 283°
2026-05-06 09:52 51.84519 -158.99996 34197 ft 472 kts 283°
2026-05-06 09:52 51.86158 -159.10301 34195 ft 472 kts 283°
2026-05-06 09:53 51.87776 -159.20537 34195 ft 473 kts 283°
2026-05-06 09:53 51.89402 -159.30882 34197 ft 474 kts 283°
2026-05-06 09:54 51.91020 -159.41241 34195 ft 474 kts 283°
2026-05-06 09:54 51.92628 -159.51610 34193 ft 474 kts 283°
2026-05-06 09:55 51.94229 -159.61996 34193 ft 474 kts 283°
2026-05-06 09:55 51.95809 -159.72309 34196 ft 474 kts 283°
2026-05-06 09:56 51.97390 -159.82701 34199 ft 474 kts 283°
2026-05-06 09:56 51.98963 -159.93093 34199 ft 474 kts 283°
2026-05-06 09:57 52.00520 -160.03491 34199 ft 474 kts 282°
2026-05-06 09:57 52.02027 -160.13913 34192 ft 474 kts 282°
2026-05-06 09:58 52.03517 -160.24364 34194 ft 475 kts 282°
2026-05-06 09:58 52.04996 -160.34779 34192 ft 476 kts 282°
2026-05-06 09:59 52.06481 -160.45279 34193 ft 477 kts 282°
2026-05-06 09:59 52.07959 -160.55799 34194 ft 477 kts 282°
2026-05-06 10:00 52.09430 -160.66341 34194 ft 478 kts 282°
2026-05-06 10:00 52.10896 -160.76911 34197 ft 478 kts 282°
2026-05-06 10:01 52.12339 -160.87404 34187 ft 479 kts 282°
2026-05-06 10:01 52.13785 -160.97997 34192 ft 479 kts 282°
2026-05-06 10:02 52.15224 -161.08611 34188 ft 480 kts 282°
2026-05-06 10:02 52.16657 -161.19251 34188 ft 481 kts 282°
2026-05-06 10:03 52.18074 -161.29848 34190 ft 481 kts 282°
2026-05-06 10:03 52.19490 -161.40524 34188 ft 482 kts 282°
2026-05-06 10:04 52.20900 -161.51235 34187 ft 483 kts 283°
2026-05-06 10:04 52.22290 -161.61884 34184 ft 483 kts 283°
2026-05-06 10:05 52.23680 -161.72593 34182 ft 483 kts 283°
2026-05-06 10:05 52.25060 -161.83320 34185 ft 482 kts 283°
2026-05-06 10:06 52.26429 -161.94028 34174 ft 482 kts 283°
2026-05-06 10:06 52.27788 -162.04755 34178 ft 482 kts 283°
2026-05-06 10:07 52.29139 -162.15496 34182 ft 482 kts 283°
2026-05-06 10:07 52.30468 -162.26156 34181 ft 482 kts 283°
2026-05-06 10:08 52.31799 -162.36903 34179 ft 482 kts 283°
2026-05-06 10:08 52.33120 -162.47657 34171 ft 482 kts 283°
2026-05-06 10:09 52.34429 -162.58402 34173 ft 482 kts 283°
2026-05-06 10:09 52.35732 -162.69183 34175 ft 483 kts 283°
2026-05-06 10:10 52.37017 -162.79897 34175 ft 483 kts 283°
2026-05-06 10:10 52.38302 -162.90706 34161 ft 483 kts 283°
2026-05-06 10:11 52.39361 -162.99690 34175 ft 482 kts 283°
2026-05-06 10:11 52.40625 -163.10478 34170 ft 482 kts 283°
2026-05-06 10:12 52.41877 -163.21261 34171 ft 481 kts 283°
2026-05-06 10:12 52.43116 -163.32020 34171 ft 480 kts 283°
2026-05-06 10:13 52.44344 -163.42784 34173 ft 479 kts 284°
2026-05-06 10:13 52.45558 -163.53506 34164 ft 477 kts 284°
2026-05-06 10:14 52.46756 -163.64180 34162 ft 475 kts 283°
2026-05-06 10:14 52.47934 -163.74761 34163 ft 474 kts 283°
2026-05-06 10:15 52.49107 -163.85389 34172 ft 473 kts 283°
2026-05-06 10:15 52.50268 -163.96010 34169 ft 471 kts 284°
2026-05-06 10:16 52.51417 -164.06606 34159 ft 470 kts 284°
2026-05-06 10:16 52.52552 -164.17160 34166 ft 469 kts 284°
2026-05-06 10:17 52.53677 -164.27714 34163 ft 468 kts 284°
2026-05-06 10:17 52.54791 -164.38260 34162 ft 469 kts 284°
2026-05-06 10:18 52.55890 -164.48759 34161 ft 469 kts 284°
2026-05-06 10:18 52.56987 -164.59334 34162 ft 470 kts 284°
2026-05-06 10:19 52.58076 -164.69933 34161 ft 470 kts 283°
2026-05-06 10:19 52.59158 -164.80557 34165 ft 471 kts 283°
2026-05-06 10:20 52.60230 -164.91187 34171 ft 470 kts 284°
2026-05-06 10:20 52.61290 -165.01799 34155 ft 468 kts 284°
2026-05-06 10:21 52.62329 -165.12296 34168 ft 467 kts 284°
2026-05-06 10:21 52.63364 -165.22844 34167 ft 466 kts 284°
2026-05-06 10:22 52.64388 -165.33385 34122 ft 465 kts 284°
2026-05-06 10:22 52.65398 -165.43887 34154 ft 464 kts 284°
2026-05-06 10:23 52.66398 -165.54379 34158 ft 463 kts 284°
2026-05-06 10:23 52.67381 -165.64791 34160 ft 462 kts 284°
2026-05-06 10:24 52.68359 -165.75254 34159 ft 462 kts 284°
2026-05-06 10:24 52.69328 -165.85726 34153 ft 462 kts 284°
2026-05-06 10:25 52.70285 -165.96186 34159 ft 460 kts 284°
2026-05-06 10:25 52.71231 -166.06615 34164 ft 459 kts 284°
2026-05-06 10:26 52.72165 -166.17022 34163 ft 458 kts 284°
2026-05-06 10:26 52.73084 -166.27360 34168 ft 458 kts 284°
2026-05-06 10:27 52.73997 -166.37740 34162 ft 456 kts 283°
2026-05-06 10:27 52.74899 -166.48106 34164 ft 455 kts 283°
2026-05-06 10:28 52.75789 -166.58442 34167 ft 454 kts 283°
2026-05-06 10:28 52.76668 -166.68760 34171 ft 453 kts 283°
2026-05-06 10:29 52.77538 -166.79064 34172 ft 453 kts 283°
2026-05-06 10:29 52.78398 -166.89367 34167 ft 452 kts 283°
2026-05-06 10:30 52.79247 -166.99665 34174 ft 451 kts 283°
2026-05-06 10:30 52.80082 -167.09883 34174 ft 451 kts 283°
2026-05-06 10:31 52.80913 -167.20173 34174 ft 451 kts 283°
2026-05-06 10:31 52.81734 -167.30460 34150 ft 451 kts 283°
2026-05-06 10:32 52.82544 -167.40712 34163 ft 448 kts 282°
2026-05-06 10:32 52.83338 -167.50905 34171 ft 446 kts 282°
2026-05-06 10:33 52.84116 -167.60987 34173 ft 444 kts 282°
2026-05-06 10:33 52.84889 -167.71108 34174 ft 443 kts 282°
2026-05-06 10:34 52.85652 -167.81224 34152 ft 443 kts 281°
2026-05-06 10:34 52.86410 -167.91374 34174 ft 444 kts 281°
2026-05-06 10:35 52.87158 -168.01520 34178 ft 445 kts 281°
2026-05-06 10:35 52.87899 -168.11703 34176 ft 446 kts 281°
2026-05-06 10:36 52.88633 -168.21903 34163 ft 446 kts 281°
2026-05-06 10:36 52.89355 -168.32065 34152 ft 447 kts 280°
2026-05-06 10:37 52.90074 -168.42315 34175 ft 447 kts 280°
2026-05-06 10:37 52.90783 -168.52557 34163 ft 448 kts 280°
2026-05-06 10:38 52.91484 -168.62813 34173 ft 448 kts 280°
2026-05-06 10:38 52.92172 -168.73004 34171 ft 448 kts 279°
2026-05-06 10:39 52.92857 -168.83273 34150 ft 448 kts 279°
2026-05-06 10:39 52.93532 -168.93536 34165 ft 447 kts 279°
2026-05-06 10:40 52.94197 -169.03794 34157 ft 448 kts 278°
2026-05-06 10:40 52.94854 -169.14065 34167 ft 447 kts 278°
2026-05-06 10:41 52.95498 -169.24265 34151 ft 447 kts 278°
2026-05-06 10:41 52.96137 -169.34543 34158 ft 447 kts 278°
2026-05-06 10:42 52.96768 -169.44828 34158 ft 448 kts 278°
2026-05-06 10:42 52.97390 -169.55112 34155 ft 448 kts 278°
2026-05-06 10:43 52.98003 -169.65394 34150 ft 448 kts 278°
2026-05-06 10:44 52.98904 -169.80781 34145 ft 448 kts 278°
2026-05-06 10:44 52.99498 -169.91100 34141 ft 450 kts 277°
2026-05-06 10:45 52.99895 -170.01532 34142 ft 455 kts 271°
2026-05-06 10:45 52.99364 -170.12043 34145 ft 459 kts 266°
2026-05-06 10:46 52.98717 -170.22605 34137 ft 460 kts 267°
2026-05-06 10:46 52.98085 -170.33114 34138 ft 460 kts 267°
2026-05-06 10:47 52.97454 -170.43694 34139 ft 461 kts 266°
2026-05-06 10:47 52.96816 -170.54262 34130 ft 460 kts 266°
2026-05-06 10:48 52.96169 -170.64826 34131 ft 460 kts 266°
2026-05-06 10:48 52.95514 -170.75368 34136 ft 459 kts 266°
2026-05-06 10:49 52.94849 -170.85914 34123 ft 459 kts 265°
2026-05-06 10:49 52.94176 -170.96439 34130 ft 459 kts 265°
2026-05-06 10:50 52.93496 -171.06904 34126 ft 459 kts 265°
2026-05-06 10:50 52.92803 -171.17433 34126 ft 459 kts 265°
2026-05-06 10:51 52.92101 -171.27967 34115 ft 460 kts 265°
2026-05-06 10:51 52.91387 -171.38520 34128 ft 460 kts 264°
2026-05-06 10:52 52.90667 -171.49039 34111 ft 463 kts 264°
2026-05-06 10:52 52.89929 -171.59667 34122 ft 465 kts 264°
2026-05-06 10:53 52.89178 -171.70341 34123 ft 467 kts 264°
2026-05-06 10:53 52.88413 -171.81069 34114 ft 469 kts 264°
2026-05-06 10:54 52.87643 -171.91733 34113 ft 469 kts 263°
2026-05-06 10:54 52.86860 -172.02456 34104 ft 469 kts 263°
2026-05-06 10:55 52.86064 -172.13191 34101 ft 469 kts 263°
2026-05-06 10:55 52.85261 -172.23911 34111 ft 469 kts 263°
2026-05-06 10:56 52.84447 -172.34624 34105 ft 469 kts 263°
2026-05-06 10:56 52.83629 -172.45277 34117 ft 470 kts 262°
2026-05-06 10:57 52.82797 -172.55989 34102 ft 470 kts 262°
2026-05-06 10:57 52.81953 -172.66708 34112 ft 470 kts 262°
2026-05-06 10:58 52.81098 -172.77442 34093 ft 471 kts 262°
2026-05-06 10:58 52.80380 -172.86369 34093 ft 471 kts 262°
2026-05-06 10:59 52.79506 -172.97122 34103 ft 472 kts 261°
2026-05-06 10:59 52.78616 -173.07937 34268 ft 477 kts 260°
2026-05-06 10:59 52.78164 -173.13366 34551 ft 476 kts 261°
2026-05-06 11:00 52.77714 -173.18765 34948 ft 472 kts 260°
2026-05-06 11:00 52.77120 -173.25857 35438 ft 469 kts 260°
2026-05-06 11:00 52.76821 -173.29390 35589 ft 469 kts 261°
2026-05-06 11:00 52.76369 -173.34722 35875 ft 468 kts 261°
2026-05-06 11:01 52.75915 -173.40040 36006 ft 469 kts 261°
2026-05-06 11:01 52.74994 -173.50740 36082 ft 471 kts 259°
2026-05-06 11:02 52.74063 -173.61446 36081 ft 471 kts 259°
2026-05-06 11:02 52.73124 -173.72127 36076 ft 470 kts 259°
2026-05-06 11:03 52.72182 -173.82731 36070 ft 470 kts 259°
2026-05-06 11:03 52.71225 -173.93399 36072 ft 470 kts 259°
2026-05-06 11:04 52.70256 -174.04085 36062 ft 471 kts 259°
2026-05-06 11:04 52.69281 -174.14718 36066 ft 472 kts 259°
2026-05-06 11:05 52.68287 -174.25454 36059 ft 474 kts 259°
2026-05-06 11:05 52.67282 -174.36206 36055 ft 475 kts 259°
2026-05-06 11:06 52.66264 -174.46976 36052 ft 476 kts 258°
2026-05-06 11:06 52.65236 -174.57759 36049 ft 476 kts 258°
2026-05-06 11:07 52.64200 -174.68514 36040 ft 476 kts 258°
2026-05-06 11:07 52.63156 -174.79240 36043 ft 476 kts 258°
2026-05-06 11:08 52.62097 -174.90012 36042 ft 476 kts 258°
2026-05-06 11:08 52.61030 -175.00771 36067 ft 476 kts 258°
2026-05-06 11:09 52.59952 -175.11526 36047 ft 477 kts 257°
2026-05-06 11:09 52.58863 -175.22295 36033 ft 477 kts 257°
2026-05-06 11:10 52.57764 -175.33061 36034 ft 477 kts 257°
2026-05-06 11:10 52.56662 -175.43753 36027 ft 478 kts 257°
2026-05-06 11:11 52.55542 -175.54528 36031 ft 478 kts 257°
2026-05-06 11:11 52.54411 -175.65298 36016 ft 478 kts 257°
2026-05-06 11:12 52.53271 -175.76058 36016 ft 479 kts 257°
2026-05-06 11:12 52.52120 -175.86830 36008 ft 479 kts 256°
2026-05-06 11:13 52.50959 -175.97593 36010 ft 479 kts 256°
2026-05-06 11:13 52.49786 -176.08370 36008 ft 480 kts 256°
2026-05-06 11:14 52.48603 -176.19146 36005 ft 480 kts 256°
2026-05-06 11:14 52.47417 -176.29853 35993 ft 480 kts 256°
2026-05-06 11:15 52.46213 -176.40636 35993 ft 480 kts 256°
2026-05-06 11:15 52.45000 -176.51403 35991 ft 481 kts 256°
2026-05-06 11:16 52.43772 -176.62202 35992 ft 481 kts 255°
2026-05-06 11:16 52.42537 -176.72973 35976 ft 481 kts 255°
2026-05-06 11:17 52.41292 -176.83745 35972 ft 481 kts 255°
2026-05-06 11:17 52.40037 -176.94513 35973 ft 481 kts 255°
2026-05-06 11:18 52.38774 -177.05261 35994 ft 481 kts 254°
2026-05-06 11:18 52.37497 -177.16029 35974 ft 481 kts 254°
2026-05-06 11:19 52.36213 -177.26776 35958 ft 481 kts 254°
2026-05-06 11:19 52.34920 -177.37508 35944 ft 480 kts 254°
2026-05-06 11:20 52.33628 -177.48146 35941 ft 480 kts 254°
2026-05-06 11:20 52.32317 -177.58853 35941 ft 481 kts 253°
2026-05-06 11:21 52.30995 -177.69562 35937 ft 481 kts 253°
2026-05-06 11:21 52.29662 -177.80278 35931 ft 481 kts 253°
2026-05-06 11:22 52.28320 -177.90986 35921 ft 481 kts 253°
2026-05-06 11:22 52.26974 -178.01639 35921 ft 481 kts 253°
2026-05-06 11:23 52.25607 -178.12372 35912 ft 483 kts 253°
2026-05-06 11:23 52.24231 -178.23098 35901 ft 483 kts 253°
2026-05-06 11:24 52.22844 -178.33823 35899 ft 483 kts 253°
2026-05-06 11:24 52.21449 -178.44537 35893 ft 483 kts 253°
2026-05-06 11:25 52.20052 -178.55176 35915 ft 483 kts 253°
2026-05-06 11:25 52.18635 -178.65892 35887 ft 484 kts 253°
2026-05-06 11:26 52.17207 -178.76610 35880 ft 484 kts 253°
2026-05-06 11:26 52.15767 -178.87334 35874 ft 484 kts 253°
2026-05-06 11:27 52.14320 -178.98041 35875 ft 484 kts 253°
2026-05-06 11:27 52.12863 -179.08735 35866 ft 484 kts 253°
2026-05-06 11:28 52.11401 -179.19383 35868 ft 484 kts 253°
2026-05-06 11:28 52.09922 -179.30085 35851 ft 484 kts 253°
2026-05-06 11:29 52.08435 -179.40775 35850 ft 484 kts 252°
2026-05-06 11:29 52.06939 -179.51446 35844 ft 484 kts 252°
2026-05-06 11:30 52.05433 -179.62111 35834 ft 484 kts 252°
2026-05-06 11:30 52.03920 -179.72756 35840 ft 484 kts 252°
2026-05-06 11:31 52.02397 -179.83397 35834 ft 483 kts 252°
2026-05-06 11:31 52.00874 -179.93975 35832 ft 483 kts 252°
2026-05-06 11:32 51.99772 179.95208 35834 ft 489 kts 262°
2026-05-06 11:32 51.99498 179.84159 35818 ft 490 kts 263°
2026-05-06 11:33 51.99240 179.73169 35819 ft 490 kts 263°
2026-05-06 11:33 51.98939 179.62126 35805 ft 489 kts 263°
2026-05-06 11:34 51.98610 179.51105 35833 ft 489 kts 263°
2026-05-06 11:34 51.98265 179.40068 35801 ft 490 kts 263°
2026-05-06 11:35 51.97912 179.29031 35793 ft 490 kts 263°
2026-05-06 11:35 51.97552 179.18057 35785 ft 490 kts 263°
2026-05-06 11:36 51.97180 179.07019 35781 ft 490 kts 262°
2026-05-06 11:36 51.96797 178.95989 35777 ft 490 kts 263°
2026-05-06 11:37 51.96406 178.84979 35776 ft 490 kts 262°
2026-05-06 11:37 51.96002 178.73939 35759 ft 489 kts 263°
2026-05-06 11:38 51.95589 178.62927 35752 ft 489 kts 262°
2026-05-06 11:38 51.95166 178.51933 35777 ft 488 kts 263°
2026-05-06 11:39 51.94735 178.40930 35747 ft 488 kts 262°
2026-05-06 11:39 51.94291 178.29948 35743 ft 488 kts 262°
2026-05-06 11:40 51.93839 178.19031 35737 ft 488 kts 262°
2026-05-06 11:40 51.93376 178.08051 35735 ft 488 kts 262°
2026-05-06 11:41 51.92903 177.97077 35729 ft 488 kts 262°
2026-05-06 11:41 51.92420 177.86106 35725 ft 488 kts 262°
2026-05-06 11:42 51.91930 177.75231 35713 ft 488 kts 262°
2026-05-06 11:42 51.91428 177.64268 35710 ft 487 kts 261°
2026-05-06 11:43 51.90914 177.53321 35731 ft 487 kts 262°
2026-05-06 11:43 51.90391 177.42375 35709 ft 487 kts 261°
2026-05-06 11:44 51.89590 177.26018 35693 ft 487 kts 262°
2026-05-06 11:44 51.89044 177.15082 35690 ft 487 kts 261°
2026-05-06 11:45 51.88598 177.05992 35701 ft 487 kts 262°
2026-05-06 11:45 51.88160 176.95018 35686 ft 488 kts 263°
2026-05-06 11:46 51.87742 176.84067 35672 ft 487 kts 262°
2026-05-06 11:46 51.87300 176.73119 35674 ft 487 kts 263°
2026-05-06 11:47 51.86843 176.62265 35665 ft 486 kts 262°
2026-05-06 11:47 51.86369 176.51358 35672 ft 486 kts 263°
2026-05-06 11:48 51.85885 176.40426 35659 ft 487 kts 263°
2026-05-06 11:48 51.85392 176.29500 35657 ft 487 kts 263°
2026-05-06 11:49 51.84888 176.18566 35657 ft 487 kts 263°
2026-05-06 11:49 51.84375 176.07644 35673 ft 487 kts 263°
2026-05-06 11:50 51.83851 175.96717 35664 ft 487 kts 263°
2026-05-06 11:50 51.83317 175.85796 35657 ft 487 kts 263°
2026-05-06 11:51 51.82777 175.74952 35657 ft 487 kts 262°
2026-05-06 11:51 51.82223 175.64035 35658 ft 487 kts 262°
2026-05-06 11:52 51.81658 175.53102 35660 ft 487 kts 262°
2026-05-06 11:52 51.81085 175.42209 35657 ft 486 kts 262°
2026-05-06 11:53 51.80502 175.31321 35656 ft 486 kts 262°
2026-05-06 11:53 51.79909 175.20427 35656 ft 486 kts 262°
2026-05-06 11:54 51.79310 175.09618 35659 ft 486 kts 262°
2026-05-06 11:54 51.78699 174.98739 35649 ft 486 kts 262°
2026-05-06 11:55 51.77884 174.87896 35659 ft 484 kts 256°
2026-05-06 11:55 51.76024 174.77511 35658 ft 481 kts 249°
2026-05-06 11:56 51.73903 174.67265 35651 ft 481 kts 249°
2026-05-06 11:56 51.71798 174.57028 35658 ft 481 kts 250°
2026-05-06 11:57 51.69719 174.46840 35651 ft 481 kts 250°
2026-05-06 11:57 51.67627 174.36600 35634 ft 481 kts 250°
2026-05-06 11:58 51.65529 174.26375 35657 ft 480 kts 250°
2026-05-06 11:58 51.63420 174.16161 35659 ft 480 kts 250°
2026-05-06 11:59 51.61308 174.05985 35643 ft 479 kts 250°
2026-05-06 11:59 51.59203 173.95895 35659 ft 478 kts 250°
2026-05-06 12:00 51.57079 173.85767 35647 ft 477 kts 250°
2026-05-06 12:00 51.54951 173.75669 35643 ft 477 kts 250°
2026-05-06 12:01 51.52815 173.65588 35653 ft 477 kts 250°
2026-05-06 12:01 51.50672 173.55521 35648 ft 476 kts 250°
2026-05-06 12:02 51.48520 173.45457 35645 ft 476 kts 250°
2026-05-06 12:02 51.46360 173.35411 35646 ft 476 kts 249°
2026-05-06 12:03 51.44204 173.25430 35658 ft 476 kts 250°
2026-05-06 12:03 51.42023 173.15385 35653 ft 477 kts 250°
2026-05-06 12:04 51.39832 173.05339 35648 ft 477 kts 249°
2026-05-06 12:04 51.37646 172.95370 35651 ft 477 kts 249°
2026-05-06 12:05 51.35440 172.85351 35648 ft 477 kts 249°
2026-05-06 12:05 51.33222 172.75335 35659 ft 477 kts 249°
2026-05-06 12:06 51.31003 172.65352 35644 ft 476 kts 249°
2026-05-06 12:06 51.28776 172.55388 35649 ft 475 kts 249°
2026-05-06 12:07 51.26547 172.45460 35647 ft 475 kts 249°
2026-05-06 12:07 51.24327 172.35619 35651 ft 474 kts 249°
2026-05-06 12:08 51.22081 172.25713 35642 ft 474 kts 249°
2026-05-06 12:08 51.19829 172.15824 35635 ft 474 kts 249°
2026-05-06 12:09 51.17572 172.05955 35637 ft 473 kts 249°
2026-05-06 12:09 51.15309 171.96112 35633 ft 473 kts 249°
2026-05-06 12:10 51.13038 171.86278 35642 ft 473 kts 249°
2026-05-06 12:10 51.10756 171.76438 35634 ft 473 kts 249°
2026-05-06 12:11 51.08477 171.66661 35632 ft 474 kts 249°
2026-05-06 12:11 51.06181 171.56855 35630 ft 474 kts 249°
2026-05-06 12:12 51.03869 171.47022 35629 ft 474 kts 249°
2026-05-06 12:12 51.01552 171.37217 35633 ft 473 kts 249°
2026-05-06 12:13 50.99230 171.27432 35627 ft 472 kts 249°
2026-05-06 12:13 50.96925 171.17762 35632 ft 471 kts 249°
2026-05-06 12:14 50.94602 171.08063 35628 ft 470 kts 249°
2026-05-06 12:14 50.92272 170.98375 35634 ft 470 kts 249°
2026-05-06 12:15 50.89934 170.88697 35633 ft 470 kts 249°
2026-05-06 12:15 50.87591 170.79041 35636 ft 470 kts 249°
2026-05-06 12:16 50.85234 170.69374 35635 ft 470 kts 249°
2026-05-06 12:16 50.82886 170.59783 35639 ft 470 kts 249°
2026-05-06 12:17 50.80517 170.50147 35637 ft 470 kts 249°
2026-05-06 12:17 50.78135 170.40501 35634 ft 470 kts 249°
2026-05-06 12:18 50.75744 170.30861 35638 ft 471 kts 249°
2026-05-06 12:18 50.73347 170.21238 35638 ft 471 kts 249°
2026-05-06 12:19 50.70941 170.11622 35643 ft 471 kts 249°
2026-05-06 12:19 50.68541 170.02069 35638 ft 470 kts 249°
2026-05-06 12:20 50.66122 169.92484 35631 ft 470 kts 249°
2026-05-06 12:20 50.63703 169.82939 35639 ft 469 kts 249°
2026-05-06 12:21 50.61278 169.73409 35637 ft 468 kts 249°
2026-05-06 12:21 50.58849 169.63907 35646 ft 467 kts 249°
2026-05-06 12:22 50.56429 169.54477 35644 ft 466 kts 249°
2026-05-06 12:22 50.53995 169.45034 35645 ft 466 kts 249°
2026-05-06 12:23 50.51554 169.35602 35645 ft 465 kts 249°
2026-05-06 12:23 50.49106 169.26181 35656 ft 465 kts 249°
2026-05-06 12:24 50.46657 169.16793 35648 ft 465 kts 249°
2026-05-06 12:24 50.44195 169.07401 35648 ft 465 kts 249°
2026-05-06 12:25 50.41731 168.98034 35651 ft 464 kts 249°
2026-05-06 12:25 50.39260 168.88679 35652 ft 465 kts 249°
2026-05-06 12:26 50.36794 168.79383 35655 ft 464 kts 249°
2026-05-06 12:26 50.34305 168.70039 35650 ft 464 kts 249°
2026-05-06 12:27 50.31813 168.60720 35643 ft 464 kts 249°
2026-05-06 12:27 50.29318 168.51427 35653 ft 463 kts 249°
2026-05-06 12:28 50.26836 168.42218 35657 ft 462 kts 249°
2026-05-06 12:28 50.24333 168.32972 35656 ft 461 kts 249°
2026-05-06 12:29 50.21832 168.23767 35656 ft 460 kts 249°
2026-05-06 12:29 50.19329 168.14589 35659 ft 459 kts 249°
2026-05-06 12:30 50.16819 168.05425 35665 ft 459 kts 249°
2026-05-06 12:30 50.14316 167.96321 35665 ft 458 kts 249°
2026-05-06 12:31 50.11799 167.87203 35666 ft 458 kts 249°
2026-05-06 12:31 50.09278 167.78103 35664 ft 457 kts 249°
2026-05-06 12:32 50.06749 167.69010 35665 ft 457 kts 249°
2026-05-06 12:32 50.04212 167.59924 35665 ft 457 kts 249°
2026-05-06 12:33 50.01669 167.50854 35671 ft 457 kts 249°
2026-05-06 12:33 49.99139 167.41861 35669 ft 457 kts 249°
2026-05-06 12:34 49.96586 167.32824 35670 ft 456 kts 249°
2026-05-06 12:34 49.94029 167.23802 35654 ft 456 kts 249°
2026-05-06 12:35 49.91467 167.14803 35666 ft 455 kts 249°
2026-05-06 12:35 49.89342 167.07361 35671 ft 453 kts 249°
2026-05-06 12:36 49.86786 166.98442 35680 ft 452 kts 249°
2026-05-06 12:36 49.84230 166.89555 35681 ft 451 kts 249°
2026-05-06 12:37 49.81671 166.80690 35681 ft 450 kts 249°
2026-05-06 12:37 49.79124 166.71899 35682 ft 450 kts 249°
2026-05-06 12:38 49.76556 166.63069 35682 ft 450 kts 249°
2026-05-06 12:38 49.73978 166.54235 35681 ft 450 kts 249°
2026-05-06 12:39 49.71388 166.45391 35690 ft 451 kts 248°
2026-05-06 12:39 49.68809 166.36615 35678 ft 451 kts 249°
2026-05-06 12:40 49.66206 166.27792 35692 ft 450 kts 248°
2026-05-06 12:40 49.63175 166.19297 35702 ft 453 kts 242°
2026-05-06 12:41 49.59896 166.11009 35687 ft 452 kts 242°
2026-05-06 12:41 49.56643 166.02770 35693 ft 451 kts 243°
2026-05-06 12:42 49.53385 165.94500 35687 ft 450 kts 243°
2026-05-06 12:42 49.50144 165.86286 35694 ft 448 kts 243°
2026-05-06 12:43 49.46930 165.78162 35699 ft 446 kts 243°
2026-05-06 12:43 49.43701 165.70027 35707 ft 445 kts 243°
2026-05-06 12:44 49.40472 165.61917 35707 ft 445 kts 243°
2026-05-06 12:44 49.37243 165.53831 35710 ft 444 kts 243°
2026-05-06 12:45 49.34009 165.45760 35712 ft 444 kts 243°
2026-05-06 12:46 49.29148 165.33673 35722 ft 444 kts 243°
2026-05-06 12:46 49.25906 165.25640 35723 ft 444 kts 243°
2026-05-06 12:47 49.22653 165.17609 35722 ft 442 kts 243°
2026-05-06 12:47 49.19427 165.09667 35722 ft 441 kts 243°
2026-05-06 12:48 49.16194 165.01732 35730 ft 440 kts 243°
2026-05-06 12:48 49.12962 164.93821 35730 ft 438 kts 243°
2026-05-06 12:49 49.09728 164.85930 35734 ft 438 kts 243°
2026-05-06 12:49 49.06498 164.78070 35732 ft 437 kts 243°
2026-05-06 12:50 49.03263 164.70223 35738 ft 436 kts 243°
2026-05-06 12:50 49.00025 164.62391 35743 ft 436 kts 243°
2026-05-06 12:51 48.96782 164.54569 35745 ft 437 kts 243°
2026-05-06 12:51 48.93544 164.46784 35745 ft 437 kts 243°
2026-05-06 12:52 48.90288 164.38978 35716 ft 436 kts 243°
2026-05-06 12:52 48.87033 164.31198 35735 ft 436 kts 243°
2026-05-06 12:53 48.83780 164.23444 35753 ft 435 kts 243°
2026-05-06 12:53 48.80541 164.15745 35752 ft 435 kts 243°
2026-05-06 12:54 48.77277 164.08008 35738 ft 435 kts 243°
2026-05-06 12:54 48.74014 164.00298 35755 ft 434 kts 243°
2026-05-06 12:55 48.70757 163.92624 35761 ft 433 kts 243°
2026-05-06 12:55 48.67494 163.84956 35760 ft 433 kts 243°
2026-05-06 12:56 48.64227 163.77302 35762 ft 433 kts 243°
2026-05-06 12:56 48.60973 163.69699 35760 ft 432 kts 243°
2026-05-06 12:57 48.57704 163.62086 35770 ft 431 kts 243°
2026-05-06 12:57 48.54442 163.54510 35763 ft 429 kts 244°
2026-05-06 12:58 48.51185 163.46964 35768 ft 428 kts 244°
2026-05-06 12:58 48.47936 163.39457 35774 ft 427 kts 244°
2026-05-06 12:59 48.44683 163.31963 35787 ft 426 kts 244°
2026-05-06 12:59 48.41450 163.24535 35788 ft 426 kts 244°
2026-05-06 13:00 48.38197 163.17082 35790 ft 425 kts 244°
2026-05-06 13:00 48.34943 163.09646 35791 ft 425 kts 243°
2026-05-06 13:01 48.31686 163.02226 35796 ft 425 kts 243°
2026-05-06 13:01 48.28423 162.94810 35802 ft 425 kts 243°
2026-05-06 13:02 48.25151 162.87396 35799 ft 426 kts 243°
2026-05-06 13:02 48.21893 162.80033 35777 ft 425 kts 244°
2026-05-06 13:03 48.18621 162.72661 35792 ft 424 kts 244°
2026-05-06 13:03 48.15349 162.65306 35797 ft 423 kts 243°
2026-05-06 13:04 48.12079 162.57976 35795 ft 422 kts 243°
2026-05-06 13:04 48.08818 162.50687 35811 ft 421 kts 243°
2026-05-06 13:05 48.05556 162.43414 35807 ft 421 kts 243°
2026-05-06 13:05 48.02291 162.36153 35809 ft 420 kts 243°
2026-05-06 13:06 47.99047 162.28958 35802 ft 419 kts 243°
2026-05-06 13:06 47.95785 162.21745 35807 ft 419 kts 243°
2026-05-06 13:07 47.92522 162.14545 35814 ft 419 kts 243°
2026-05-06 13:07 47.89249 162.07343 35816 ft 419 kts 243°
2026-05-06 13:08 47.85975 162.00158 35815 ft 419 kts 243°
2026-05-06 13:08 47.82697 161.92982 35812 ft 419 kts 243°
2026-05-06 13:09 47.79437 161.85866 35816 ft 419 kts 243°
2026-05-06 13:09 47.76149 161.78707 35827 ft 419 kts 243°
2026-05-06 13:10 47.72852 161.71546 35826 ft 419 kts 243°
2026-05-06 13:10 47.69558 161.64411 35824 ft 419 kts 243°
2026-05-06 13:11 47.66261 161.57288 35824 ft 418 kts 243°
2026-05-06 13:11 47.62961 161.50176 35827 ft 418 kts 243°
2026-05-06 13:12 47.59680 161.43122 35835 ft 418 kts 243°
2026-05-06 13:12 47.56375 161.36032 35832 ft 418 kts 243°
2026-05-06 13:13 47.53036 161.28977 35824 ft 418 kts 242°
2026-05-06 13:13 47.49636 161.22003 35831 ft 418 kts 242°
2026-05-06 13:14 47.46220 161.15024 35838 ft 418 kts 242°
2026-05-06 13:14 47.42818 161.08070 35842 ft 418 kts 242°
2026-05-06 13:15 47.39433 161.01155 35852 ft 418 kts 242°
2026-05-06 13:15 47.36021 160.94199 35843 ft 418 kts 242°
2026-05-06 13:16 47.32606 160.87253 35855 ft 418 kts 242°
2026-05-06 13:16 47.29182 160.80308 35856 ft 419 kts 242°
2026-05-06 13:17 47.25754 160.73370 35860 ft 419 kts 242°
2026-05-06 13:17 47.22316 160.66431 35860 ft 419 kts 242°
2026-05-06 13:18 47.18877 160.59508 35844 ft 418 kts 242°
2026-05-06 13:18 47.15453 160.52632 35857 ft 419 kts 242°
2026-05-06 13:19 47.12003 160.45720 35873 ft 420 kts 242°
2026-05-06 13:19 47.08540 160.38800 35869 ft 421 kts 242°
2026-05-06 13:20 47.05075 160.31893 35852 ft 421 kts 242°
2026-05-06 13:20 47.01594 160.24974 35872 ft 421 kts 241°
2026-05-06 13:21 46.98704 160.19241 35888 ft 421 kts 241°
2026-05-06 13:21 46.94650 160.11218 35890 ft 421 kts 241°
2026-05-06 13:22 46.91165 160.04341 35888 ft 421 kts 241°
2026-05-06 13:22 46.88238 159.98577 35878 ft 421 kts 241°
2026-05-06 13:23 46.84767 159.91761 35887 ft 420 kts 241°
2026-05-06 13:23 46.81278 159.84924 35893 ft 420 kts 241°
2026-05-06 13:24 46.77784 159.78091 35895 ft 420 kts 241°
2026-05-06 13:24 46.74283 159.71265 35896 ft 420 kts 240°
2026-05-06 13:25 46.70777 159.64444 35898 ft 420 kts 240°
2026-05-06 13:25 46.67271 159.57641 35902 ft 420 kts 240°
2026-05-06 13:26 46.63777 159.50876 35902 ft 420 kts 240°
2026-05-06 13:26 46.60254 159.44074 35908 ft 420 kts 240°
2026-05-06 13:27 46.56728 159.37281 35894 ft 420 kts 240°
2026-05-06 13:27 46.53225 159.30550 35873 ft 420 kts 240°
2026-05-06 13:28 46.49699 159.23791 35902 ft 420 kts 240°
2026-05-06 13:28 46.46161 159.17024 35914 ft 420 kts 240°
2026-05-06 13:29 46.42622 159.10273 35937 ft 420 kts 240°
2026-05-06 13:29 46.39076 159.03523 35924 ft 421 kts 240°
2026-05-06 13:30 46.35541 158.96813 35921 ft 421 kts 240°
2026-05-06 13:30 46.31986 158.90080 35932 ft 421 kts 240°
2026-05-06 13:31 46.28415 158.83332 35930 ft 422 kts 240°
2026-05-06 13:31 46.24843 158.76601 35905 ft 422 kts 240°
2026-05-06 13:32 46.21269 158.69881 35918 ft 422 kts 239°
2026-05-06 13:32 46.17709 158.63202 35926 ft 421 kts 239°
2026-05-06 13:33 46.14123 158.56492 35935 ft 423 kts 239°
2026-05-06 13:33 46.10525 158.49773 35943 ft 424 kts 239°
2026-05-06 13:34 46.06913 158.43046 35938 ft 425 kts 239°
2026-05-06 13:34 46.03289 158.36313 35951 ft 425 kts 239°
2026-05-06 13:35 45.99657 158.29583 35948 ft 426 kts 239°
2026-05-06 13:35 45.96045 158.22905 35949 ft 425 kts 239°
2026-05-06 13:36 45.92406 158.16194 35944 ft 425 kts 239°
2026-05-06 13:36 45.88768 158.09498 35962 ft 425 kts 239°
2026-05-06 13:37 45.85131 158.02822 35927 ft 424 kts 238°
2026-05-06 13:37 45.81487 157.96148 35952 ft 424 kts 238°
2026-05-06 13:38 45.77845 157.89493 35969 ft 424 kts 238°
2026-05-06 13:38 45.74212 157.82870 35959 ft 425 kts 238°
2026-05-06 13:39 45.70555 157.76219 35972 ft 425 kts 238°
2026-05-06 13:39 45.66887 157.69565 35972 ft 426 kts 238°
2026-05-06 13:40 45.63215 157.62919 35973 ft 426 kts 238°
2026-05-06 13:40 45.59535 157.56274 35962 ft 426 kts 238°
2026-05-06 13:41 45.55881 157.49691 35979 ft 426 kts 238°
2026-05-06 13:41 45.52190 157.43058 35961 ft 426 kts 238°
2026-05-06 13:42 45.48496 157.36434 35983 ft 427 kts 238°
2026-05-06 13:42 45.44796 157.29815 35984 ft 427 kts 238°
2026-05-06 13:43 45.41088 157.23197 35984 ft 428 kts 237°
2026-05-06 13:43 45.37364 157.16568 35995 ft 428 kts 237°
2026-05-06 13:44 45.33635 157.09945 35991 ft 429 kts 237°
2026-05-06 13:44 45.29922 157.03364 35993 ft 429 kts 237°
2026-05-06 13:45 45.26177 156.96744 35987 ft 430 kts 237°
2026-05-06 13:45 45.20555 156.86834 35999 ft 430 kts 237°
2026-05-06 13:46 45.16799 156.80232 35987 ft 430 kts 237°
2026-05-06 13:46 45.13035 156.73631 35996 ft 431 kts 237°
2026-05-06 13:47 45.09285 156.67070 36014 ft 431 kts 237°
2026-05-06 13:47 45.05509 156.60478 36016 ft 431 kts 237°
2026-05-06 13:48 45.01720 156.53881 36017 ft 432 kts 237°
2026-05-06 13:48 44.97931 156.47299 36002 ft 432 kts 237°
2026-05-06 13:49 44.94138 156.40724 36014 ft 432 kts 237°
2026-05-06 13:49 44.90343 156.34160 36014 ft 432 kts 237°
2026-05-06 13:50 44.86540 156.27600 36017 ft 432 kts 237°
2026-05-06 13:50 44.82730 156.21041 36020 ft 431 kts 236°
2026-05-06 13:51 44.78941 156.14533 36019 ft 432 kts 236°
2026-05-06 13:51 44.75124 156.07993 36025 ft 432 kts 236°
2026-05-06 13:52 44.71305 156.01463 36030 ft 432 kts 236°
2026-05-06 13:52 44.67475 155.94932 36030 ft 433 kts 236°
2026-05-06 13:53 44.63642 155.88408 36023 ft 433 kts 236°
2026-05-06 13:53 44.59828 155.81933 36033 ft 433 kts 236°
2026-05-06 13:54 44.55985 155.75422 36037 ft 433 kts 236°
2026-05-06 13:54 44.52134 155.68914 36035 ft 433 kts 236°
2026-05-06 13:55 44.48286 155.62426 36028 ft 433 kts 236°
2026-05-06 13:55 44.44461 155.55991 36043 ft 432 kts 236°
2026-05-06 13:56 44.40587 155.49487 36044 ft 432 kts 236°
2026-05-06 13:56 44.36760 155.43076 36044 ft 432 kts 236°
2026-05-06 13:57 44.32904 155.36632 36028 ft 432 kts 236°
2026-05-06 13:57 44.29041 155.30190 36041 ft 432 kts 235°
2026-05-06 13:58 44.25179 155.23764 36048 ft 432 kts 235°
2026-05-06 13:58 44.21315 155.17347 36046 ft 432 kts 235°
2026-05-06 13:59 44.17441 155.10929 36055 ft 432 kts 235°
2026-05-06 13:59 44.13525 155.04562 36049 ft 433 kts 234°
2026-05-06 14:00 44.09577 154.98285 36055 ft 433 kts 234°
2026-05-06 14:00 44.05608 154.91989 36060 ft 433 kts 234°
2026-05-06 14:01 44.01636 154.85683 36058 ft 433 kts 234°
2026-05-06 14:01 43.97665 154.79383 36056 ft 433 kts 234°
2026-05-06 14:02 43.93689 154.73088 36060 ft 433 kts 234°
2026-05-06 14:02 43.89735 154.66840 36065 ft 433 kts 234°
2026-05-06 14:03 43.85752 154.60561 36053 ft 433 kts 234°
2026-05-06 14:03 43.81767 154.54293 36060 ft 433 kts 234°
2026-05-06 14:04 43.77777 154.48031 36074 ft 433 kts 233°
2026-05-06 14:04 43.73807 154.41813 36076 ft 433 kts 233°
2026-05-06 14:05 43.69816 154.35577 36077 ft 433 kts 233°
2026-05-06 14:05 43.65821 154.29348 36080 ft 433 kts 233°
2026-05-06 14:06 43.61827 154.23133 36088 ft 433 kts 233°
2026-05-06 14:06 43.57826 154.16921 36087 ft 433 kts 233°
2026-05-06 14:07 43.53820 154.10715 36064 ft 433 kts 233°
2026-05-06 14:07 43.49812 154.04520 36084 ft 433 kts 233°
2026-05-06 14:08 43.45827 153.98372 36089 ft 433 kts 233°
2026-05-06 14:08 43.41813 153.92195 36088 ft 433 kts 233°
2026-05-06 14:09 43.37796 153.86025 36100 ft 433 kts 233°
2026-05-06 14:09 43.34425 153.80857 36093 ft 433 kts 233°
2026-05-06 14:10 43.30418 153.74728 36100 ft 433 kts 233°
2026-05-06 14:10 43.26385 153.68572 36107 ft 434 kts 233°
2026-05-06 14:11 43.22342 153.62413 36104 ft 434 kts 233°
2026-05-06 14:11 43.18293 153.56258 36092 ft 434 kts 232°
2026-05-06 14:12 43.14241 153.50112 36113 ft 435 kts 232°
2026-05-06 14:12 43.10179 153.43964 36110 ft 435 kts 232°
2026-05-06 14:13 43.06102 153.37806 36110 ft 436 kts 232°
2026-05-06 14:13 43.02050 153.31699 36119 ft 436 kts 232°
2026-05-06 14:14 42.97963 153.25553 36112 ft 437 kts 232°
2026-05-06 14:14 42.93870 153.19411 36110 ft 438 kts 232°
2026-05-06 14:15 42.89767 153.13267 36114 ft 438 kts 232°
2026-05-06 14:15 42.85659 153.07129 36114 ft 437 kts 232°
2026-05-06 14:16 42.81556 153.01012 36125 ft 437 kts 232°
2026-05-06 14:16 42.77443 152.94892 36125 ft 438 kts 232°
2026-05-06 14:17 42.73327 152.88780 36128 ft 438 kts 232°
2026-05-06 14:17 42.69231 152.82710 36128 ft 438 kts 232°
2026-05-06 14:18 42.65109 152.76617 36132 ft 437 kts 232°
2026-05-06 14:18 42.60983 152.70529 36136 ft 437 kts 232°
2026-05-06 14:19 42.56854 152.64450 36111 ft 437 kts 232°
2026-05-06 14:19 42.52741 152.58408 36130 ft 436 kts 231°
2026-05-06 14:20 42.48629 152.52379 36137 ft 435 kts 231°
2026-05-06 14:20 42.44527 152.46377 36140 ft 434 kts 231°
2026-05-06 14:21 42.40446 152.40419 36130 ft 434 kts 231°
2026-05-06 14:21 42.36320 152.34406 36145 ft 433 kts 231°
2026-05-06 14:22 42.32249 152.28487 36156 ft 432 kts 231°
2026-05-06 14:22 42.28147 152.22533 36146 ft 432 kts 231°
2026-05-06 14:23 42.24042 152.16589 36156 ft 432 kts 231°
2026-05-06 14:23 42.19947 152.10672 36149 ft 431 kts 231°
2026-05-06 14:24 42.15879 152.04805 36149 ft 430 kts 231°
2026-05-06 14:24 42.11791 151.98920 36155 ft 430 kts 231°
2026-05-06 14:25 42.07693 151.93034 36152 ft 430 kts 231°
2026-05-06 14:25 42.03601 151.87168 36152 ft 430 kts 231°
2026-05-06 14:26 41.99506 151.81308 36155 ft 430 kts 231°
2026-05-06 14:26 41.95407 151.75457 36155 ft 430 kts 231°
2026-05-06 14:27 41.91312 151.69623 36151 ft 428 kts 231°
2026-05-06 14:27 41.87249 151.63846 36159 ft 427 kts 231°
2026-05-06 14:28 41.83159 151.58041 36159 ft 427 kts 231°
2026-05-06 14:28 41.79099 151.52290 36143 ft 426 kts 231°
2026-05-06 14:29 41.75019 151.46523 36163 ft 425 kts 231°
2026-05-06 14:29 41.70942 151.40770 36165 ft 425 kts 231°
2026-05-06 14:30 41.66867 151.35031 36167 ft 425 kts 231°
2026-05-06 14:30 41.62787 151.29298 36154 ft 425 kts 231°
2026-05-06 14:31 41.58708 151.23578 36169 ft 424 kts 231°
2026-05-06 14:31 41.54663 151.17915 36174 ft 424 kts 231°
2026-05-06 14:32 41.50593 151.12229 36179 ft 424 kts 231°
2026-05-06 14:32 41.46518 151.06547 36174 ft 423 kts 231°
2026-05-06 14:33 41.42444 151.00877 36180 ft 423 kts 231°
2026-05-06 14:33 41.38365 150.95211 36185 ft 423 kts 231°
2026-05-06 14:34 41.34312 150.89592 36185 ft 423 kts 231°
2026-05-06 14:34 41.30229 150.83942 36182 ft 423 kts 231°
2026-05-06 14:35 41.26145 150.78302 36188 ft 423 kts 231°
2026-05-06 14:35 41.22055 150.72665 36187 ft 423 kts 231°
2026-05-06 14:36 41.17956 150.67027 36187 ft 424 kts 231°
2026-05-06 14:36 41.13865 150.61410 36194 ft 423 kts 231°
2026-05-06 14:37 41.09767 150.55794 36184 ft 423 kts 231°
2026-05-06 14:37 41.05699 150.50229 36185 ft 423 kts 231°
2026-05-06 14:38 41.01599 150.44632 36161 ft 422 kts 231°
2026-05-06 14:38 40.97525 150.39083 36182 ft 418 kts 231°
2026-05-06 14:39 40.93483 150.33588 36185 ft 416 kts 231°
2026-05-06 14:39 40.89453 150.28116 36194 ft 414 kts 231°
2026-05-06 14:40 40.85440 150.22678 36197 ft 412 kts 231°
2026-05-06 14:40 40.81432 150.17254 36192 ft 412 kts 231°
2026-05-06 14:41 40.77445 150.11870 36200 ft 413 kts 231°
2026-05-06 14:41 40.73412 150.06434 36200 ft 415 kts 231°
2026-05-06 14:42 40.69369 150.00998 36194 ft 414 kts 232°
2026-05-06 14:42 40.65351 149.95606 36191 ft 410 kts 232°
2026-05-06 14:43 40.61367 149.90267 36195 ft 407 kts 232°
2026-05-06 14:43 40.57399 149.84959 36188 ft 404 kts 232°
2026-05-06 14:44 40.53487 149.79733 36193 ft 402 kts 232°
2026-05-06 14:45 40.47599 149.71882 36201 ft 401 kts 232°
2026-05-06 14:45 40.43666 149.66651 36202 ft 402 kts 232°
2026-05-06 14:46 40.39722 149.61431 36167 ft 402 kts 232°
2026-05-06 14:46 40.35841 149.56332 36197 ft 393 kts 232°
2026-05-06 14:47 40.31987 149.51268 36199 ft 392 kts 232°
2026-05-06 14:47 40.28142 149.46215 36206 ft 392 kts 232°
2026-05-06 14:48 40.24281 149.41150 36205 ft 392 kts 232°
2026-05-06 14:48 40.20417 149.36090 36198 ft 393 kts 232°
2026-05-06 14:49 40.16561 149.31052 36206 ft 394 kts 232°
2026-05-06 14:49 40.12675 149.25982 36200 ft 395 kts 232°
2026-05-06 14:50 40.08780 149.20911 36184 ft 394 kts 233°
2026-05-06 14:50 40.04914 149.15890 36197 ft 390 kts 233°
2026-05-06 14:51 40.01089 149.10929 36201 ft 386 kts 233°
2026-05-06 14:51 39.97317 149.06042 36202 ft 384 kts 233°
2026-05-06 14:52 39.93535 149.01147 36197 ft 382 kts 233°